Regional Weather Roundup
Issued by NWS Pendleton, OR

Home | Current Version | Previous Version | Text Only | Print | Product List | Glossary On
Versions: 1 2 3 4 5 6 7 8 9 10 11 12 13 14 15 16 17 18 19 20 21 22 23 24 25 26 27 28 29 30 31 32 33 34 35 36 37 38 39 40 41 42 43 44 45 46 47 48 49 50
000
ASUS46 KPDT 251825
RWRPDT
PENDLETON REGIONAL WEATHER ROUNDUP
NATIONAL WEATHER SERVICE PENDLETON OREGON
1100 AM PDT THU AUG 25 2016

NOTE: FAIR INDICATES FEW OR NO CLOUDS BELOW 12,000 FEET WITH NO
SIGNIFICANT WEATHER AND/OR OBSTRUCTIONS TO VISIBILITY.

# INDICATES UNOFFICIAL STATION AND DATA

WAZ520-251910-
EAST SLOPES OF WASHINGTON CASCADES

CITY            SKY/WX      TMP DP  RH  WIND    PRES   REMARKS
#CLE ELUM HS    N/A         80  41  25  CALM    30.09F
#CLE ELUM 2NW   N/A         78  37  23  E1      N/A
#GLENWOOD       N/A         78  46  32  E5      30.06F
#MANASTASH CYN  N/A         74  42  32  W1      30.14F
#NELSON 3SW     N/A         76  46  34  CALM    30.25F
#NILE           N/A         76  45  33  E1      29.36F
#RONALD 2NW     N/A         73  N/A N/A NW2     30.04F
#TEANAWAY 4NE   N/A         78  49  36  S2      N/A
#TROUT LAKE 1NE N/A         79  45  30  E6      30.04F
#TROUT LAKE 1E  N/A         83  47  28  CALM    30.06F
$$

WAZ521-251910-
SIMCOE HIGHLANDS

CITY            SKY/WX      TMP DP  RH  WIND    PRES   REMARKS
#CENTERVILLE 1SWN/A         80  45  29  S1      30.00F
#GOLDENDALE 1NE N/A         80  28  15  S2      N/A
#GOLDENDALE 4W  N/A         84  50  31  CALM    30.13F
#GOODNOE HILLS  N/A         84  45  26  SW3     30.02F
#LYLE 6NE       N/A         75  44  33  S2      30.00F
$$

WAZ026-251910-
KITTITAS VALLEY

CITY            SKY/WX      TMP DP  RH  WIND    PRES   REMARKS
ELLENSBURG AP   SUNNY       76  46  34  CALM    30.15F
6HR MIN TEMP:   50; 6HR MAX TEMP:   76;

#ELLENSBURG CWU N/A         75  48  38  N1      30.03F
#ELLENSBURG 3NE N/A         73  53  49  CALM    30.14F
#ELLENSBURG     N/A         86  49  28  CALM    N/A
#ELLENSBURG 1E  N/A         72  N/A N/A CALM    N/A
#KITTITAS 4N    N/A         80  50  35  CALM    30.09F
#KITTITAS 3S    N/A         72  50  46  CALM    30.07F
#THORP 6N       N/A         77  41  28  W1      30.08F
$$

WAZ027-251910-
YAKIMA VALLEY

CITY            SKY/WX      TMP DP  RH  WIND    PRES   REMARKS
SUNNYSIDE AP    N/A         76  52  43  E5      30.10F
YAKIMA AIRPORT  SUNNY       84  41  22  VRB3    30.11F
6HR MIN TEMP:   53; 6HR MAX TEMP:   84;

YAKIMA-VAGABOND N/A         81  39  22  W7      30.10F
6HR MIN TEMP:   54; 6HR MAX TEMP:   82;

#DONALD 2NE     N/A         88   9   5  S1      28.95F
#GRANDVIEW      N/A         79  48  34  CALM    30.08F
#MABTON         N/A         76  52  43  CALM    30.09F
#NACHES 2SW     N/A         80  45  29  E2      30.17S
#TERRACE HTS    N/A         82  47  29  S2      30.02F
#TOPPENISH      N/A         79  46  31  W1      29.98F
#WEST VALLEY    N/A         80  45  29  CALM    30.05F
#WHITE SWAN 5E  N/A         82  46  28  CALM    30.07F
#WILEY CITY 3W  N/A         81  33  18  CALM    30.10F
$$

WAZ028-251910-
LOWER COLUMBIA BASIN...WASHINGTON

CITY            SKY/WX      TMP DP  RH  WIND    PRES   REMARKS
HANFORD         PTCLDY      80  40  24  N5      30.10F
PASCO           SUNNY       77  47  35  NW6     30.10F
6HR MIN TEMP:   53; 6HR MAX TEMP:   77;

PROSSER AWOS    N/A         79  46  31  S3      30.13F
RICHLAND AWOS   SUNNY       82  47  29  N5      30.09F
#BENTON CITY    N/A         78  48  35  NE7     29.98F
#CONNELL 5N     N/A         81  50  34  SW2     30.06F
#CONNELL 5NW    N/A         76  46  34  N2      30.02F
#ELTOPIA 6NW    N/A         79  50  36  CALM    29.08F
#KAHLOTUS       N/A         79  41  26  S10     30.05F
#KENNEWICK 3S   N/A         76  51  42  N1      30.08F
#PATERSON       N/A         75  50  41  CALM    30.05F
#SAGEMOOR 2W    N/A         77  51  40  N2      29.92F
#TOUCHET 2S     N/A         78  49  36  W2      30.05F
#WEST PASCO     N/A         76  54  46  N1      30.09F
$$

WAZ029-251910-
FOOTHILLS OF THE BLUES...WASHINGTON

CITY            SKY/WX      TMP DP  RH  WIND    PRES   REMARKS
WALLA WALLA AP  SUNNY       76  42  30  MISG    30.11F
6HR MIN TEMP:   58; 6HR MAX TEMP:   76;

#CLYDE 6NW      N/A         80  43  27  E12     30.03F
#DAYTON SCHOOL  N/A         79  39  24  VRB6    30.10F
#LOWDEN 2SE     N/A         75  49  40  NW1     30.05F
#PLEASANT VIEW 1N/A         78  40  26  NE9     30.08F
#PRESCOTT       N/A         81  48  32  CALM    30.05F
#WHITMAN COLLEGEN/A         73  47  40  CALM    30.10F
#WAITSBURG 8N   N/A         82  24  12  N10     30.09F
#WALLA WALLA U  N/A         74  47  38  CALM    30.05F
#WHITMAN MISSIONN/A         72  48  43  CALM    30.07F
$$

WAZ030-251910-
BLUE MOUNTAINS...WASHINGTON

CITY            SKY/WX      TMP DP  RH  WIND    PRES   REMARKS
#DIXIE 5SE      N/A         70  43  38  NW8     30.09F
$$

ORZ009-041-WAZ024-251910-
COLUMBIA RIVER GORGE

CITY            SKY/WX      TMP DP  RH  WIND    PRES   REMARKS
HOOD RIVER AP   SUNNY       77  45  32  CALM    30.08F
THE DALLES AP   SUNNY       80  42  26  CALM    30.07F
6HR MIN TEMP:   56; 6HR MAX TEMP:   80;

#ARLINGTON AIRPON/A         78  45  31  NW1     30.06F
#LYLE           N/A         76  46  34  W2      30.06F
#MARYHILL 2W    N/A         N/A N/A N/A CALM    N/A
#MOSIER 1S      N/A         81  36  20  N3      30.06F
#MURDOCK        N/A         77  46  33  W2      30.01F
#SMITHVILLE     N/A         79  45  30  W3      30.06F

$$

ORZ510-251910-
NORTH CENTRAL OREGON

CITY            SKY/WX      TMP DP  RH  WIND    PRES   REMARKS
#ANTELOPE       N/A         76  43  31  E7      29.90F
#DUFUR 9E       N/A         76  41  28  E8      30.07F
#GRASS VALLEY 1SN/A         79  41  26  E5      30.08F
#MAUPIN SCHOOL  N/A         78  44  30  CALM    30.12F
#TYGH VALLEY 2NEN/A         76  46  34  CALM    30.05F
#WAPANITIA AIRPON/A         78  41  27  NE6     30.07F
#WASCO 5NE      N/A         81  45  28  CALM    30.05F
$$

ORZ511-251910-
CENTRAL OREGON

CITY            SKY/WX      TMP DP  RH  WIND    PRES   REMARKS
BEND AIRPORT    N/A         N/A N/A N/A MISG    N/A
MADRAS AIRPORT  SUNNY       81  41  24  MISG    30.17F
PRINEVILLE AP   SUNNY       75  37  25  CALM    30.16F
REDMOND AIRPORT SUNNY       74  33  22  N12     30.16F
6HR MIN TEMP:   45; 6HR MAX TEMP:   74;

#ASHWOOD SCHOOL N/A         77  38  24  N7      30.09F
#BEND 1SW       N/A         70  42  36  N2      N/A
#BEND-AWBREY    N/A         71  42  35  CALM    30.04F
#CULVER         N/A         73  42  33  N1      29.98F
#CULVER 8W      N/A         76  37  24  N2      30.14F
#LAKE BILLY CHINN/A         74  N/A N/A N6      30.16F
#MADRAS 4S      N/A         73  19  13  NW3     30.20F
#POWELL BUTTE 3EN/A         66  39  37  W3      N/A
#POWELL BUTTE   N/A         74  46  37  N6      30.03F
#PRINEVILLE 3N  N/A         74  46  37  W3      30.11F
#WARM SPRINGS   N/A         78  43  29  CALM    30.09F

$$


ORZ509-251910-
EAST SLOPES OF OREGON CASCADES

CITY            SKY/WX      TMP DP  RH  WIND    PRES   REMARKS
SISTERS AWOS    N/A         73  37  27  NE13    30.13F
#BLUE BOX PASS  N/A         71  N/A N/A CALM    N/A
#CAMP SHERMAN   N/A         79  38  23  N1      30.11F
#LA PINE 4NW    N/A         71  43  36  E1      30.08F
#LAVA BUTTE DOT N/A         70  44  39  N1      N/A
#SISTERS AIRPOR N/A         74  48  40  N7      30.17S
#SISTERS ODOT   N/A         73  N/A N/A NW3     N/A
#SISTERS 3N     N/A         75  41  29  N6      30.07F
#SUNRIVER       N/A         72  42  34  N3      30.07F
#SUTTLE LK DOT  N/A         65  41  41  NE15    N/A
#TUMALO 3W      N/A         71  39  31  N2      29.91F

$$

ORZ044-251910-
LOWER COLUMBIA BASIN...OREGON

CITY            SKY/WX      TMP DP  RH  WIND    PRES   REMARKS
HERMISTON       SUNNY       79  43  28  N5      30.09F
6HR MIN TEMP:   51; 6HR MAX TEMP:   79;

#BOARDMAN SCHOOLN/A         78  49  36  N3      30.07F
#ECHO 8SW       N/A         79  45  30  CALM    30.09F
#UMATILLA       N/A         81  47  30  CALM    29.99F
$$

ORZ507-251910-
NORTHERN FOOTHILLS OF THE BLUES

CITY            SKY/WX      TMP DP  RH  WIND    PRES   REMARKS
PENDLETON AIRPT SUNNY       79  41  26  NW9     30.11F
6HR MIN TEMP:   51; 6HR MAX TEMP:   79;

#ADAMS 3WNW     N/A         78  44  30  SW3     30.04F
#ATHENA         N/A         77  45  32  CALM    30.07F
#CAYUSE         N/A         76  45  33  S3      30.03F
#HELIX SCHOOL   N/A         75  44  33  N6      30.05F
#HELIX 3N       N/A         78  43  29  N9      30.09F
#HELIX 6SW      N/A         78  43  29  NE5     30.09F
#HOLDMAN 5SE    N/A         78  46  32  NW2     30.09F
#HOLDMAN 6E     N/A         77  43  30  E7      29.86F
#M-F GROVE ELEM N/A         72  44  37  N1      30.08F
#M-FREEWATER 5SEN/A         74  51  44  N1      30.09F
#PENDLETON DNTN N/A         80  47  31  SW3     30.10F
#PDT AQUATIC CTRN/A         75  47  37  N3      30.11F
#PDT SUNRIDGE   N/A         78  44  30  CALM    30.11F
#PENDLETON 7NW  N/A         81  53  38  CALM    31.42S
#PILOT ROCK 1S  N/A         74  41  30  CALM    30.13S
#PILOT ROCK     N/A         74  44  34  N1      30.11F
#TUTUILLA       N/A         77  43  30  CALM    30.08F
#UMAPINE 2E     N/A         73  50  44  W1      30.06F
#WESTON SCHOOL  N/A         74  40  29  CALM    29.98F

$$

ORZ508-251910-
SOUTHERN FOOTHILLS OF THE BLUES

CITY            SKY/WX      TMP DP  RH  WIND    PRES   REMARKS
LEXINGTON       SUNNY       79  39  24  N15     30.14F
#AJAX           N/A         77  36  23  N6      27.88F
#CONDON SCHOOL  N/A         75  44  33  NE7     30.11F
#CONDON 5W      N/A         72  37  28  NE7     30.15S
#FOSSIL SCHOOL  N/A         77  40  26  NE10    30.08F
#HEPPNER EOC    N/A         78  42  28  N6      29.98F
#HEPPNER 4NE    N/A         73  41  31  N5      30.05F
#LEXINGTON 2SE  N/A         80  43  27  N7      30.07F
#MIKKALO        N/A         82  38  21  E6      30.23F
#OLEX 4N        N/A         79  41  26  NE6     30.08F
#RUGGS 5NE      N/A         76  43  31  VRB13   30.33R
#RUGGS 2SW      N/A         75  41  29  NE7     30.06F

$$

ORZ502-503-251910-
BLUE MOUNTAINS

CITY            SKY/WX      TMP DP  RH  WIND    PRES   REMARKS
MEACHAM         SUNNY       73  31  21  VRB5    30.19S
6HR MIN TEMP:   36; 6HR MAX TEMP:   73;

#CUTSFORTH PARK N/A         67  41  39  NE2     29.98F
#HARDMAN 10S    N/A         71  38  30  N12     30.15S
#HEPPNER 15SE   N/A         70  40  34  NE5     30.13R
#LADD CREEK ODOTN/A         73  49  43  NE6     N/A
#LONG CREEK HS  N/A         70  43  38  NE5     30.18F
#PIKES PEAK     N/A         68  43  40  CALM    27.99S
#TOLLGATE       N/A         64  41  43  W3      30.06F
#TROY SCHOOL    N/A         76  47  36  CALM    29.88F
#UKIAH          N/A         72  40  31  N10     30.00F
#WESTON 4E      N/A         70  43  38  W1      29.99F
$$

ORZ505-251910-
JOHN DAY BASIN

CITY            SKY/WX      TMP DP  RH  WIND    PRES   REMARKS
JOHN DAY        SUNNY       73  40  30  W7      30.17F
#DAYVILLE SCHOOLN/A         73  41  31  CALM    30.09F
#MITCHELL       N/A         77  47  35  CALM    30.30F
#MITCHELL 8NW   N/A         73  38  28  N2      30.22F
#MONUMENT HS    N/A         69  51  53  CALM    30.03F
#MT. VERNON 5SE N/A         69  40  35  CALM    30.14F
#SPRAY SCHOOL   N/A         79  N/A N/A CALM    N/A
$$

ORZ506-251910-
OCHOCO AND JOHN DAY HIGHLANDS

CITY            SKY/WX      TMP DP  RH  WIND    PRES   REMARKS
#BUCK CREEK DOT N/A         70  39  32  N8      N/A
#KEYES SMT DOT  N/A         71  33  25  CALM    N/A
#PINE MTN OBS   N/A         60  36  41  NW1     N/A
#PRAIRIE CITY   N/A         73  42  33  W1      30.32F
#SENECA         N/A         69  N/A N/A SW1     N/A
#SENECA 9NW     N/A         69  35  28  CALM    30.02F
$$

ORZ049-251910-
GRANDE RONDE VALLEY

CITY            SKY/WX      TMP DP  RH  WIND    PRES   REMARKS
LA GRANDE       SUNNY       75  39  27  N7      30.13F
#COVE           N/A         70  48  46  N3      30.16F
#COVE SCHOOL    N/A         71  46  41  CALM    30.15F
#COVE 6NW       N/A         69  43  39  NW1     30.02F
#ELGIN 3N       N/A         80  36  21  CALM    30.09F
#IMBLER SCHOOL  N/A         72  41  33  CALM    30.09F
#ISLAND CITY 4N N/A         84  55  37  CALM    30.04F
#LA GRANDE ELEM N/A         74  41  30  NE5     30.13F
#UNION 1S       N/A         72  45  38  N3      29.96F
$$

ORZ050-251910-
WALLOWA COUNTY

CITY            SKY/WX      TMP DP  RH  WIND    PRES   REMARKS
JOSEPH AIRPORT  SUNNY       72  36  27  CALM    30.18F
#IMNAHA SCHOOL  N/A         57  41  55  N3      30.20S
#IMNAHA 10S     N/A         76  43  31  NE3     30.11F
#JOSEPH 3N      N/A         68  37  32  CALM    30.19F
#JOSEPH 3W      N/A         67  43  42  E7      30.03F
#LOSTINE        N/A         73  43  34  NW1     29.86F
#LOSTINE 3SE    N/A         74  39  28  E1      30.13F
#MT HOWARD 8000 N/A         51  37  59  NW1     30.37R
#PROMISE 1S     N/A         69  41  36  W6      30.14F
#WALLOWA SCHOOL N/A         72  45  38  CALM    30.10F



$$



USA.gov is the U.S. government's official web portal to all federal, state and local government web resources and services.